Previsão horária em Abramovschina 1

Hoje, 30 Julho, Sexta-feira

Tempo Temperatura Precipitação Vento Pressão Humidade
00:00 +18°C° 0 mm 2 m/s 741 mmHg 91%
01:00 +18°C° 0 mm 2 m/s 741 mmHg 91%
02:00 +18°C° 0 mm 2 m/s 741 mmHg 91%
03:00 +17°C° 0 mm 2 m/s 741 mmHg 91%
04:00 +17°C° 0 mm 2 m/s 741 mmHg 92%
05:00 +16°C° 0 mm 2 m/s 741 mmHg 93%
06:00 +17°C° 0.1 mm 2 m/s 741 mmHg 88%
07:00 +18°C° 0.1 mm 3 m/s 741 mmHg 84%
08:00 +20°C° 0.1 mm 3 m/s 741 mmHg 80%
09:00 +21°C° 0.2 mm 3 m/s 741 mmHg 70%
10:00 +22°C° 0.2 mm 4 m/s 741 mmHg 60%
11:00 +23°C° 0.2 mm 4 m/s 741 mmHg 50%
12:00 +23°C° 0 mm 4 m/s 741 mmHg 51%
13:00 +23°C° 0 mm 4 m/s 741 mmHg 52%
14:00 +22°C° 0 mm 4 m/s 741 mmHg 53%
15:00 +23°C° 0 mm 4 m/s 740 mmHg 51%
16:00 +23°C° 0 mm 4 m/s 740 mmHg 49%
17:00 +23°C° 0 mm 4 m/s 740 mmHg 48%
18:00 +22°C° 0 mm 4 m/s 740 mmHg 54%
19:00 +21°C° 0 mm 4 m/s 740 mmHg 60%
20:00 +20°C° 0 mm 4 m/s 740 mmHg 66%
21:00 +19°C° 0 mm 4 m/s 740 mmHg 70%
22:00 +17°C° 0 mm 4 m/s 740 mmHg 74%
23:00 +16°C° 0 mm 3 m/s 740 mmHg 78%

Amanhã, 31 Julho, Sábado

Tempo Temperatura Precipitação Vento Pressão Humidade
00:00 +16°C° 0 mm 3 m/s 740 mmHg 78%
01:00 +16°C° 0 mm 3 m/s 740 mmHg 78%
02:00 +14°C° 0 mm 4 m/s 740 mmHg 77%
03:00 +14°C° 0 mm 3 m/s 740 mmHg 78%
04:00 +14°C° 0 mm 3 m/s 740 mmHg 79%
05:00 +13°C° 0 mm 3 m/s 740 mmHg 81%
06:00 +15°C° 0 mm 4 m/s 740 mmHg 75%
07:00 +18°C° 0 mm 4 m/s 741 mmHg 69%
08:00 +20°C° 0 mm 5 m/s 741 mmHg 63%
09:00 +21°C° 0 mm 5 m/s 741 mmHg 58%
10:00 +22°C° 0 mm 5 m/s 741 mmHg 54%
11:00 +23°C° 0 mm 5 m/s 741 mmHg 50%
12:00 +25°C° 0 mm 5 m/s 741 mmHg 48%
13:00 +25°C° 0 mm 4 m/s 741 mmHg 46%
14:00 +26°C° 0 mm 4 m/s 741 mmHg 45%
15:00 +26°C° 0 mm 4 m/s 741 mmHg 47%
16:00 +26°C° 0 mm 3 m/s 741 mmHg 48%
17:00 +26°C° 0 mm 3 m/s 741 mmHg 50%
18:00 +25°C° 0 mm 3 m/s 741 mmHg 58%
19:00 +23°C° 0 mm 2 m/s 741 mmHg 65%
20:00 +21°C° 0 mm 2 m/s 741 mmHg 73%
21:00 +20°C° 0.1 mm 3 m/s 741 mmHg 74%
22:00 +20°C° 0.1 mm 4 m/s 741 mmHg 76%
23:00 +20°C° 0.1 mm 5 m/s 741 mmHg 78%

Depois de amanhã, 1 Agosto, Domingo

Tempo Temperatura Precipitação Vento Pressão Humidade
00:00 +19°C° 0 mm 4 m/s 741 mmHg 83%
01:00 +18°C° 0 mm 3 m/s 741 mmHg 88%
02:00 +18°C° 0 mm 2 m/s 740 mmHg 93%
03:00 +17°C° 0 mm 3 m/s 740 mmHg 94%
04:00 +17°C° 0 mm 3 m/s 740 mmHg 95%
05:00 +17°C° 0 mm 3 m/s 740 mmHg 97%
06:00 +18°C° 0 mm 3 m/s 740 mmHg 89%
07:00 +20°C° 0 mm 4 m/s 741 mmHg 81%
08:00 +21°C° 0 mm 4 m/s 741 mmHg 73%
09:00 +22°C° 0 mm 4 m/s 741 mmHg 65%
10:00 +23°C° 0 mm 4 m/s 741 mmHg 57%
11:00 +26°C° 0 mm 4 m/s 741 mmHg 49%
12:00 +26°C° 0 mm 5 m/s 741 mmHg 47%
13:00 +27°C° 0 mm 5 m/s 741 mmHg 45%
14:00 +27°C° 0 mm 5 m/s 741 mmHg 43%
15:00 +27°C° 0 mm 5 m/s 741 mmHg 46%
16:00 +26°C° 0 mm 5 m/s 741 mmHg 49%
17:00 +26°C° 0 mm 4 m/s 741 mmHg 52%
18:00 +25°C° 0 mm 3 m/s 741 mmHg 57%
19:00 +23°C° 0 mm 2 m/s 741 mmHg 62%
20:00 +22°C° 0 mm 1 m/s 740 mmHg 67%
21:00 +21°C° 0 mm 1 m/s 740 mmHg 70%
22:00 +20°C° 0 mm 1 m/s 740 mmHg 74%
23:00 +19°C° 0 mm 1 m/s 740 mmHg 77%

2 Agosto, Segunda-feira

Tempo Temperatura Precipitação Vento Pressão Humidade
00:00 +18°C° 0.9 mm 2 m/s 740 mmHg 84%
01:00 +17°C° 0.9 mm 2 m/s 740 mmHg 90%
02:00 +16°C° 0.9 mm 3 m/s 739 mmHg 96%
03:00 +16°C° 0.5 mm 3 m/s 739 mmHg 96%
04:00 +16°C° 0.5 mm 3 m/s 739 mmHg 97%
05:00 +16°C° 0.5 mm 3 m/s 739 mmHg 97%
06:00 +16°C° 0 mm 3 m/s 739 mmHg 96%
07:00 +16°C° 0 mm 3 m/s 739 mmHg 95%
08:00 +16°C° 0 mm 3 m/s 739 mmHg 94%
09:00 +16°C° 0 mm 3 m/s 739 mmHg 92%
10:00 +17°C° 0 mm 3 m/s 739 mmHg 90%
11:00 +17°C° 0 mm 3 m/s 739 mmHg 88%
12:00 +18°C° 0.2 mm 3 m/s 739 mmHg 83%
13:00 +19°C° 0.2 mm 3 m/s 739 mmHg 78%
14:00 +20°C° 0.2 mm 4 m/s 739 mmHg 74%
15:00 +20°C° 0.4 mm 4 m/s 740 mmHg 73%
16:00 +20°C° 0.4 mm 4 m/s 740 mmHg 72%
17:00 +21°C° 0.4 mm 4 m/s 740 mmHg 72%
18:00 +19°C° 0.1 mm 4 m/s 740 mmHg 77%
19:00 +18°C° 0.1 mm 3 m/s 740 mmHg 82%
20:00 +17°C° 0.1 mm 3 m/s 740 mmHg 88%
21:00 +16°C° 0 mm 3 m/s 741 mmHg 90%
22:00 +15°C° 0 mm 2 m/s 741 mmHg 93%
23:00 +15°C° 0 mm 2 m/s 742 mmHg 96%

3 Agosto, Terça-feira

Tempo Temperatura Precipitação Vento Pressão Humidade
00:00 +14°C° 0 mm 2 m/s 742 mmHg 95%
01:00 +13°C° 0 mm 3 m/s 742 mmHg 95%
02:00 +13°C° 0 mm 3 m/s 742 mmHg 94%
03:00 +12°C° 0 mm 3 m/s 742 mmHg 94%
04:00 +12°C° 0 mm 3 m/s 742 mmHg 94%
05:00 +12°C° 0 mm 3 m/s 743 mmHg 94%
06:00 +13°C° 0 mm 4 m/s 743 mmHg 90%
07:00 +14°C° 0 mm 4 m/s 743 mmHg 85%
08:00 +17°C° 0 mm 4 m/s 744 mmHg 81%
09:00 +17°C° 0 mm 4 m/s 744 mmHg 77%
10:00 +18°C° 0 mm 4 m/s 744 mmHg 74%
11:00 +19°C° 0 mm 4 m/s 744 mmHg 71%
12:00 +19°C° 0.2 mm 4 m/s 744 mmHg 70%
13:00 +20°C° 0.2 mm 4 m/s 745 mmHg 69%
14:00 +20°C° 0.2 mm 3 m/s 745 mmHg 68%
15:00 +20°C° 0.6 mm 3 m/s 745 mmHg 70%
16:00 +20°C° 0.6 mm 3 m/s 745 mmHg 72%
17:00 +20°C° 0.6 mm 3 m/s 745 mmHg 75%
18:00 +18°C° 0.3 mm 3 m/s 745 mmHg 78%
19:00 +17°C° 0.3 mm 2 m/s 745 mmHg 82%
20:00 +16°C° 0.3 mm 2 m/s 745 mmHg 86%
21:00 +15°C° 0 mm 2 m/s 745 mmHg 87%
22:00 +15°C° 0 mm 2 m/s 745 mmHg 88%
23:00 +14°C° 0 mm 2 m/s 746 mmHg 88%

4 Agosto, Quarta-feira

Tempo Temperatura Precipitação Vento Pressão Humidade
00:00 +14°C° 0 mm 2 m/s 746 mmHg 88%
01:00 +14°C° 0 mm 2 m/s 746 mmHg 88%
02:00 +14°C° 0 mm 2 m/s 746 mmHg 88%
03:00 +14°C° 0 mm 1 m/s 746 mmHg 89%
04:00 +14°C° 0 mm 1 m/s 746 mmHg 89%
05:00 +13°C° 0 mm 1 m/s 746 mmHg 89%
06:00 +15°C° 0 mm 1 m/s 747 mmHg 84%
07:00 +16°C° 0 mm 1 m/s 747 mmHg 80%
08:00 +19°C° 0 mm 1 m/s 747 mmHg 75%
09:00 +20°C° 0 mm 1 m/s 747 mmHg 67%
10:00 +21°C° 0 mm 2 m/s 747 mmHg 59%
11:00 +23°C° 0 mm 2 m/s 747 mmHg 51%
12:00 +24°C° 0 mm 2 m/s 747 mmHg 49%
13:00 +24°C° 0 mm 2 m/s 747 mmHg 47%
14:00 +25°C° 0 mm 2 m/s 747 mmHg 44%
15:00 +24°C° 0 mm 2 m/s 747 mmHg 47%
16:00 +24°C° 0 mm 2 m/s 747 mmHg 50%
17:00 +24°C° 0 mm 1 m/s 747 mmHg 53%
18:00 +22°C° 0 mm 1 m/s 747 mmHg 60%
19:00 +19°C° 0 mm 2 m/s 747 mmHg 66%
20:00 +18°C° 0 mm 2 m/s 747 mmHg 73%
21:00 +17°C° 0 mm 2 m/s 747 mmHg 74%
22:00 +17°C° 0 mm 2 m/s 747 mmHg 75%
23:00 +16°C° 0 mm 2 m/s 747 mmHg 76%
Mostrar mais

Necessitamos do seu Consentimento

A Meteoprog e os seus Fornecedores de Serviços podem armazenar e aceder a dados pessoais como cookies, identificadores do dispositivo ou outras tecnologias semelhantes existentes no seu dispositivo e processar estes dados para personalizar conteúdos e anúncios, assim como funcionalidades nas redes sociais e análise de tráfego.

  • Armazenar e/ou aceder a informações no seu dispositivo

    Os cookies, identificadores do dispositivo ou outras informações podem ser armazenados ou acedidos no seu dispositivo, para os fins acima indicados.

  • Anúncios e conteúdos personalizados, medição de anúncios e conteúdos, dados sobre o público-alvo e desenvolvimento de produtos

    Os anúncios e os conteúdos podem ser personalizados com base num perfil. Podem ser adicionados dados adicionais para uma maior personalização dos anúncios e dos conteúdos. A eficácia dos anúncios e dos conteúdos pode ser medida. Podem ser obtidas informações sobre o público que visualizou os anúncios e os conteúdos. Estes dados podem ser usados para desenvolver ou melhorar sistemas, softwares ou a experiência do utilizador.

Ao clicar em "Eu concordo”, permitirá o uso de cookies, identificadores do dispositivo e web beacons mencionados ou outras tecnologias semelhantes. As configurações do navegador do seu dispositivo podem ser alteradas.

Para certos fins, podem ser invocados interesses legítimos ao invés de consentimento. Pode ler mais informação sobre este assunto na nossa Política de Privacidade e Cookies.